When you browse on this site, cookies collect data to enhance your experience and personalize the content and advertising you see.
Visit our Privacy Policy to learn more. By continuing to use the site, you agree to this use of cookies and data.
  • In Österreich
  • Länderverzeichnis
  • Für 7 Tage
  • Wassertemperatur
  • Wetterkarte
  • News
  • Widgets
  • user-avatar
    Anmelden

    Stündliche Wetter Guanare

    Heute, 20 Januar, Montag

    Zeit Temperatur Niederschläge Wind Luftdruck Luftfeuchtigkeit
    00:00 +25°C° 0.4 mm 1 m/S 742 mmHg 82%
    01:00 +25°C° 0 mm 1 m/S 742 mmHg 85%
    02:00 +24°C° 0.7 mm 1 m/S 742 mmHg 86%
    03:00 +24°C° 0.7 mm 1 m/S 742 mmHg 87%
    04:00 +24°C° 0.7 mm 1 m/S 742 mmHg 89%
    05:00 +24°C° 0.2 mm 1 m/S 742 mmHg 88%
    06:00 +25°C° 0.2 mm 1 m/S 742 mmHg 87%
    07:00 +25°C° 0.2 mm 1 m/S 743 mmHg 86%
    08:00 +27°C° 0.2 mm 1 m/S 743 mmHg 80%
    09:00 +28°C° 0.2 mm 1 m/S 744 mmHg 73%
    10:00 +30°C° 0.2 mm 1 m/S 744 mmHg 67%
    11:00 +31°C° 0.3 mm 1 m/S 743 mmHg 65%
    12:00 +31°C° 0.3 mm 1 m/S 742 mmHg 62%
    13:00 +32°C° 0.3 mm 1 m/S 741 mmHg 60%
    14:00 +32°C° 0 mm 1 m/S 740 mmHg 60%
    15:00 +32°C° 0 mm 1 m/S 740 mmHg 59%
    16:00 +32°C° 0 mm 1 m/S 739 mmHg 58%
    17:00 +30°C° 0 mm 1 m/S 739 mmHg 64%
    18:00 +29°C° 0 mm 1 m/S 740 mmHg 69%
    19:00 +27°C° 0 mm 1 m/S 740 mmHg 75%
    20:00 +27°C° 0 mm 1 m/S 740 mmHg 75%
    21:00 +27°C° 0 mm 1 m/S 741 mmHg 76%
    22:00 +27°C° 0 mm 1 m/S 742 mmHg 76%
    23:00 +26°C° 0 mm 1 m/S 741 mmHg 76%

    Morgen, 21 Januar, Dienstag

    Zeit Temperatur Niederschläge Wind Luftdruck Luftfeuchtigkeit
    00:00 +26°C° 0 mm 1 m/S 741 mmHg 76%
    01:00 +26°C° 0 mm 1 m/S 741 mmHg 76%
    02:00 +26°C° 0 mm 1 m/S 741 mmHg 75%
    03:00 +26°C° 0 mm 1 m/S 741 mmHg 74%
    04:00 +26°C° 0 mm 1 m/S 741 mmHg 73%
    05:00 +26°C° 0 mm 1 m/S 741 mmHg 74%
    06:00 +26°C° 0 mm 1 m/S 742 mmHg 74%
    07:00 +27°C° 0 mm 1 m/S 742 mmHg 74%
    08:00 +28°C° 0 mm 1 m/S 742 mmHg 70%
    09:00 +29°C° 0 mm 1 m/S 743 mmHg 66%
    10:00 +31°C° 0 mm 2 m/S 743 mmHg 62%
    11:00 +32°C° 0 mm 2 m/S 742 mmHg 59%
    12:00 +34°C° 0 mm 2 m/S 741 mmHg 55%
    13:00 +35°C° 0 mm 2 m/S 740 mmHg 52%
    14:00 +33°C° 0.1 mm 1 m/S 740 mmHg 52%
    15:00 +33°C° 0.1 mm 1 m/S 739 mmHg 52%
    16:00 +33°C° 0.1 mm 1 m/S 739 mmHg 52%
    17:00 +31°C° 0 mm 1 m/S 739 mmHg 59%
    18:00 +30°C° 0 mm 1 m/S 739 mmHg 65%
    19:00 +28°C° 0 mm 1 m/S 740 mmHg 71%
    20:00 +28°C° 0 mm 1 m/S 740 mmHg 72%
    21:00 +27°C° 0 mm 1 m/S 741 mmHg 74%
    22:00 +27°C° 0 mm 1 m/S 741 mmHg 75%
    23:00 +26°C° 0 mm 1 m/S 741 mmHg 75%

    übermorgen, 22 Januar, Mittwoch

    Zeit Temperatur Niederschläge Wind Luftdruck Luftfeuchtigkeit
    00:00 +26°C° 0 mm 1 m/S 740 mmHg 74%
    01:00 +26°C° 0 mm 1 m/S 740 mmHg 74%
    02:00 +26°C° 0 mm 1 m/S 740 mmHg 74%
    03:00 +25°C° 0 mm 1 m/S 740 mmHg 74%
    04:00 +25°C° 0 mm 1 m/S 740 mmHg 75%
    05:00 +26°C° 0 mm 1 m/S 740 mmHg 74%
    06:00 +26°C° 0 mm 1 m/S 741 mmHg 73%
    07:00 +26°C° 0 mm 1 m/S 741 mmHg 73%
    08:00 +28°C° 0 mm 1 m/S 741 mmHg 67%
    09:00 +30°C° 0 mm 2 m/S 742 mmHg 60%
    10:00 +32°C° 0 mm 2 m/S 742 mmHg 54%
    11:00 +34°C° 0.1 mm 2 m/S 741 mmHg 53%
    12:00 +35°C° 0.1 mm 2 m/S 741 mmHg 51%
    13:00 +35°C° 0.1 mm 2 m/S 740 mmHg 49%
    14:00 +35°C° 0.1 mm 2 m/S 739 mmHg 51%
    15:00 +35°C° 0.1 mm 2 m/S 739 mmHg 52%
    16:00 +33°C° 0.1 mm 1 m/S 738 mmHg 53%
    17:00 +32°C° 0.1 mm 1 m/S 738 mmHg 59%
    18:00 +30°C° 0.1 mm 1 m/S 739 mmHg 64%
    19:00 +29°C° 0.1 mm 1 m/S 739 mmHg 70%
    20:00 +28°C° 0 mm 1 m/S 740 mmHg 71%
    21:00 +28°C° 0 mm 1 m/S 740 mmHg 72%
    22:00 +27°C° 0 mm 1 m/S 741 mmHg 74%
    23:00 +27°C° 0 mm 1 m/S 740 mmHg 73%

    23 Januar, Donnerstag

    Zeit Temperatur Niederschläge Wind Luftdruck Luftfeuchtigkeit
    00:00 +27°C° 0 mm 1 m/S 740 mmHg 73%
    01:00 +26°C° 0 mm 1 m/S 740 mmHg 73%
    02:00 +26°C° 0 mm 1 m/S 739 mmHg 74%
    03:00 +26°C° 0 mm 1 m/S 739 mmHg 76%
    04:00 +25°C° 0 mm 1 m/S 739 mmHg 77%
    05:00 +26°C° 0 mm 1 m/S 740 mmHg 77%
    06:00 +26°C° 0 mm 1 m/S 740 mmHg 77%
    07:00 +26°C° 0 mm 1 m/S 741 mmHg 77%
    08:00 +29°C° 0 mm 1 m/S 741 mmHg 68%
    09:00 +31°C° 0 mm 1 m/S 742 mmHg 60%
    10:00 +33°C° 0 mm 1 m/S 742 mmHg 52%
    11:00 +34°C° 0.1 mm 1 m/S 741 mmHg 50%
    12:00 +35°C° 0.1 mm 1 m/S 740 mmHg 48%
    13:00 +36°C° 0.1 mm 1 m/S 740 mmHg 46%
    14:00 +35°C° 0.2 mm 1 m/S 739 mmHg 48%
    15:00 +35°C° 0.2 mm 1 m/S 738 mmHg 50%
    16:00 +34°C° 0.2 mm 1 m/S 738 mmHg 52%
    17:00 +32°C° 0.1 mm 1 m/S 738 mmHg 58%
    18:00 +31°C° 0.1 mm 1 m/S 739 mmHg 63%
    19:00 +29°C° 0.1 mm 1 m/S 739 mmHg 68%
    20:00 +28°C° 0 mm 1 m/S 740 mmHg 71%
    21:00 +28°C° 0 mm 1 m/S 740 mmHg 73%
    22:00 +27°C° 0 mm 1 m/S 741 mmHg 76%
    23:00 +27°C° 0 mm 1 m/S 740 mmHg 76%

    24 Januar, Freitag

    Zeit Temperatur Niederschläge Wind Luftdruck Luftfeuchtigkeit
    00:00 +26°C° 0 mm 1 m/S 740 mmHg 77%
    01:00 +26°C° 0 mm 1 m/S 740 mmHg 77%
    02:00 +26°C° 0 mm 1 m/S 740 mmHg 78%
    03:00 +25°C° 0 mm 1 m/S 740 mmHg 79%
    04:00 +23°C° 0 mm 0 m/S 740 mmHg 80%
    05:00 +23°C° 0 mm 0 m/S 741 mmHg 79%
    06:00 +24°C° 0 mm 0 m/S 741 mmHg 78%
    07:00 +24°C° 0 mm 0 m/S 742 mmHg 77%
    08:00 +28°C° 0 mm 1 m/S 743 mmHg 69%
    09:00 +30°C° 0 mm 1 m/S 743 mmHg 61%
    10:00 +33°C° 0 mm 1 m/S 743 mmHg 53%
    11:00 +34°C° 0.1 mm 2 m/S 743 mmHg 51%
    12:00 +35°C° 0.1 mm 2 m/S 742 mmHg 49%
    13:00 +36°C° 0.1 mm 2 m/S 741 mmHg 47%
    14:00 +36°C° 0.2 mm 2 m/S 740 mmHg 46%
    15:00 +35°C° 0.2 mm 1 m/S 740 mmHg 46%
    16:00 +34°C° 0.2 mm 1 m/S 739 mmHg 45%
    17:00 +32°C° 0 mm 1 m/S 740 mmHg 51%
    18:00 +30°C° 0 mm 1 m/S 740 mmHg 57%
    19:00 +28°C° 0 mm 1 m/S 741 mmHg 63%
    20:00 +28°C° 0 mm 1 m/S 741 mmHg 66%
    21:00 +27°C° 0 mm 1 m/S 742 mmHg 68%
    22:00 +26°C° 0 mm 1 m/S 742 mmHg 71%
    23:00 +26°C° 0 mm 1 m/S 742 mmHg 71%

    25 Januar, Samstag

    Zeit Temperatur Niederschläge Wind Luftdruck Luftfeuchtigkeit
    00:00 +25°C° 0 mm 1 m/S 742 mmHg 71%
    01:00 +25°C° 0 mm 1 m/S 742 mmHg 72%
    02:00 +25°C° 0 mm 1 m/S 741 mmHg 73%
    03:00 +24°C° 0 mm 1 m/S 741 mmHg 73%
    04:00 +24°C° 0 mm 1 m/S 741 mmHg 74%
    05:00 +24°C° 0 mm 1 m/S 742 mmHg 73%
    06:00 +25°C° 0 mm 1 m/S 743 mmHg 72%
    07:00 +23°C° 0 mm 0 m/S 744 mmHg 72%
    08:00 +27°C° 0 mm 1 m/S 744 mmHg 64%
    09:00 +30°C° 0 mm 1 m/S 744 mmHg 56%
    10:00 +32°C° 0 mm 2 m/S 744 mmHg 49%
    11:00 +34°C° 0 mm 2 m/S 743 mmHg 47%
    12:00 +34°C° 0 mm 2 m/S 743 mmHg 45%
    13:00 +35°C° 0 mm 2 m/S 742 mmHg 42%
    14:00 +35°C° 0 mm 2 m/S 741 mmHg 44%
    15:00 +35°C° 0 mm 2 m/S 741 mmHg 45%
    16:00 +33°C° 0 mm 1 m/S 740 mmHg 46%
    17:00 +32°C° 0 mm 1 m/S 741 mmHg 52%
    18:00 +30°C° 0 mm 1 m/S 741 mmHg 57%
    19:00 +28°C° 0 mm 1 m/S 742 mmHg 63%
    20:00 +28°C° 0 mm 1 m/S 742 mmHg 64%
    21:00 +28°C° 0 mm 1 m/S 743 mmHg 65%
    22:00 +28°C° 0 mm 1 m/S 743 mmHg 66%
    23:00 +27°C° 0 mm 1 m/S 743 mmHg 67%
    Mehr zeigen